Flag for Greece Weather past 2 weeks in Athens, Greece

Now
75 °F

Clear.


Feels Like: 77 °F
Forecast: 73 / 91 °F
Wind: No wind

Location: Elefsis Airport

Current Time: Jul 25, 2014 at 6:55:33 AM

Latest Report: Jul 25, 2014 at 6:20 AM


Visibility: 10 mi

Pressure: 29.77 "Hg

Humidity: 61%

Dew point: 61 °F

Location of AthensLocation

Historic Weather in Athens — Graph

°F

Athens temperature yesterday

Maximum temperature yesterday: 90 °F (at 12:20 PM)
Minimum temperature yesterday: 75 °F (at 4:20 AM)
Average temperature yesterday: 82 °F

Past Weeks' High & Low Weather Summary

 TemperatureHumidityPressure
High99 °F (Jul 10, 3:20 PM)88% (Jul 19, 11:20 PM)29.92 "Hg (Jul 19, 11:20 PM)
Low68 °F (Jul 17, 3:50 AM)13% (Jul 10, 2:20 PM)29.59 "Hg (Jul 11, 5:50 PM)
Average81 °F45%29.80 "Hg
* Reported Jul 10 5:20 AM — Jul 25 5:20 AM, Athens, Weather by CustomWeather, © 2014

Note: Actual official high and low records may vary slightly from our data, if they occured in-between our weather recording intervals... More about our weather records

Advertising

Athens weather history for previous 24 hours

 ConditionsComfort  
Time TempWeatherWind HumidityBarometerVisibility
5:20 AM
Jul 25
73 °FClear.No wind65%29.77 "Hg10 mi
4:50 AM73 °FClear.No wind65%29.77 "Hg10 mi
4:20 AM75 °FClear.No wind61%29.77 "Hg10 mi
3:50 AM73 °FClear.No wind69%29.77 "Hg10 mi
3:20 AM75 °FClear.No wind65%29.77 "Hg10 mi
2:50 AM73 °FClear.No wind69%29.77 "Hg10 mi
2:20 AM73 °FClear.No wind69%29.77 "Hg10 mi
1:50 AM75 °FClear.No wind65%29.80 "Hg10 mi
1:20 AM75 °FClear.No wind65%29.80 "Hg10 mi
12:50 AM75 °FClear.No wind69%29.80 "Hg10 mi
12:20 AM75 °FPassing clouds.No wind69%29.80 "HgN/A
11:50 PM
Jul 24
79 °FPassing clouds.No wind65%29.80 "HgN/A
11:20 PM79 °FPassing clouds.No wind65%29.80 "HgN/A
10:50 PM77 °FPassing clouds.No wind65%29.80 "HgN/A
10:20 PM79 °FPassing clouds.No wind61%29.80 "HgN/A
9:50 PM79 °FPassing clouds.No wind61%29.80 "HgN/A
9:20 PM79 °FPassing clouds.5 mph70%29.77 "HgN/A
8:50 PM81 °FPassing clouds.5 mph62%29.77 "HgN/A
8:20 PM82 °FPassing clouds.5 mph55%29.77 "HgN/A
7:50 PM82 °FPassing clouds.6 mph55%29.77 "HgN/A
7:20 PM84 °FScattered clouds.6 mph51%29.74 "HgN/A
6:50 PM84 °FScattered clouds.8 mph51%29.74 "HgN/A
6:20 PM86 °FScattered clouds.9 mph49%29.74 "HgN/A
5:50 PM86 °FScattered clouds.8 mph49%29.74 "HgN/A
5:20 PM90 °FScattered clouds.7 mph36%29.74 "HgN/A
4:50 PM88 °FScattered clouds.7 mph40%29.77 "HgN/A
4:20 PM88 °FScattered clouds.9 mph38%29.77 "HgN/A
3:50 PM90 °FScattered clouds.8 mph33%29.77 "HgN/A
3:20 PM90 °FScattered clouds.9 mph33%29.77 "HgN/A
2:50 PM90 °FScattered clouds.8 mph31%29.74 "HgN/A
2:20 PM86 °FScattered clouds.6 mph38%29.74 "HgN/A
1:50 PM88 °FScattered clouds.8 mph38%29.74 "HgN/A
1:20 PM88 °FScattered clouds.9 mph38%29.74 "HgN/A
12:50 PM90 °FScattered clouds.9 mph36%29.74 "HgN/A
12:20 PM90 °FScattered clouds.7 mph33%29.74 "HgN/A
11:50 AM88 °FPassing clouds.8 mph38%29.74 "HgN/A
11:20 AM88 °FPassing clouds.8 mph35%29.74 "HgN/A
10:50 AM86 °FPassing clouds.7 mph40%29.74 "HgN/A
10:20 AM86 °FPassing clouds.No wind33%29.74 "HgN/A
9:50 AM84 °FSunny.6 mph37%29.74 "Hg10 mi
9:20 AM84 °FSunny.No wind37%29.74 "Hg10 mi
8:50 AM82 °FSunny.No wind42%29.74 "Hg10 mi
8:20 AM81 °FSunny.No wind48%29.74 "Hg10 mi
7:50 AM79 °FSunny.No wind51%29.74 "Hg10 mi
7:20 AM77 °FClear.No wind54%29.74 "Hg10 mi
6:50 AM77 °FPassing clouds.No wind54%29.71 "HgN/A
6:20 AM75 °FPassing clouds.No wind57%29.71 "HgN/A
Weather by CustomWeather, © 2014

See weather overviewHow to use our weather pages